Flag for Germany Weather past 2 weeks in Solingen, North Rhine-Westphalia, Germany

Now
57 °F

Sunny.


Feels Like: 54 °F
Forecast: 45 / 61 °F
Wind: 13 mph from Northeast

Location: Duesseldorf


UV Index: 3 (Moderate)

Visibility: 10 mi


Pressure: 29.77 "Hg

Humidity: 72%

Dew point: 48 °F

Location of SolingenLocation

Historic Weather in Solingen

°F

Solingen temperature yesterday

Maximum temperature yesterday: 63 °F (at 4:50 PM)
Minimum temperature yesterday: 39 °F (at 6:50 AM)
Average temperature yesterday: 52 °F

Past Weeks' High & Low Weather Summary

 TemperatureHumidityPressure
High72 °F (Apr 7, 4:20 PM)94% (Apr 6, 2:20 AM)30.45 "Hg (Apr 6, 2:20 AM)
Low30 °F (Apr 16, 4:50 AM)24% (Apr 17, 4:50 PM)29.74 "Hg (Apr 7, 10:20 PM)
Average52 °F66%30.09 "Hg
* Reported Apr 5 8:20 AM — Apr 20 8:20 AM, Solingen, Weather by CustomWeather, © 2014

Note: Actual official high and low records may vary slightly from our data, if they occured in-between our weather recording intervals... More about our weather records

Advertising

Historic Weather Conditions — Data for Previous 24 hours

 ConditionsComfort  
Time TempWeatherWind HumidityBarometerVisibility
8:20 AM
Apr 20
55 °FSunny.8 mph77%29.77 "Hg10 mi
7:50 AM54 °FSunny.5 mph82%29.77 "Hg10 mi
7:20 AM54 °FClear.7 mph82%29.77 "Hg10 mi
6:50 AM54 °FClear.7 mph77%29.77 "Hg10 mi
6:20 AM54 °FClear.8 mph77%29.80 "Hg10 mi
5:50 AM54 °FClear.6 mph77%29.80 "Hg10 mi
5:20 AM54 °FClear.10 mph77%29.80 "Hg10 mi
4:50 AM52 °FClear.9 mph82%29.80 "Hg10 mi
4:20 AM54 °FClear.13 mph77%29.80 "Hg10 mi
3:50 AM54 °FClear.16 mph77%29.80 "Hg10 mi
3:20 AM54 °FClear.15 mph77%29.83 "Hg10 mi
2:50 AM54 °FClear.18 mph77%29.83 "Hg10 mi
2:20 AM54 °FClear.18 mph77%29.83 "Hg10 mi
1:50 AM54 °FClear.17 mph72%29.83 "Hg10 mi
1:20 AM54 °FClear.17 mph72%29.86 "Hg10 mi
12:50 AM55 °FClear.16 mph67%29.86 "Hg10 mi
12:20 AM55 °FClear.16 mph72%29.89 "Hg10 mi
11:50 PM
Apr 19
55 °FClear.16 mph72%29.89 "Hg10 mi
11:20 PM57 °FClear.17 mph67%29.89 "Hg10 mi
10:50 PM57 °FClear.15 mph63%29.89 "Hg10 mi
10:20 PM57 °FClear.9 mph63%29.89 "Hg10 mi
9:50 PM57 °FClear.9 mph63%29.92 "Hg10 mi
9:20 PM57 °FSunny.10 mph63%29.92 "Hg10 mi
8:50 PM57 °FSunny.14 mph59%29.92 "Hg10 mi
8:20 PM59 °FSunny.15 mph55%29.92 "Hg10 mi
7:50 PM59 °FSunny.16 mph55%29.92 "Hg10 mi
7:20 PM59 °FSunny.22 mph51%29.92 "Hg10 mi
6:50 PM61 °FSunny.21 mph48%29.92 "Hg10 mi
6:20 PM63 °FSunny.18 mph45%29.92 "Hg10 mi
5:50 PM63 °FSunny.20 mph45%29.92 "Hg10 mi
5:20 PM63 °FSunny.17 mph45%29.92 "Hg10 mi
4:50 PM63 °FPassing clouds.20 mph42%29.95 "HgN/A
4:20 PM61 °FPassing clouds.17 mph45%29.95 "HgN/A
3:50 PM61 °FPassing clouds.15 mph45%29.98 "HgN/A
3:20 PM61 °FPassing clouds.15 mph48%29.98 "HgN/A
2:50 PM59 °FPassing clouds.17 mph48%30.01 "HgN/A
2:20 PM59 °FPassing clouds.16 mph51%30.01 "HgN/A
1:50 PM59 °FPassing clouds.14 mph48%30.01 "HgN/A
1:20 PM57 °FPassing clouds.15 mph48%30.04 "HgN/A
12:50 PM57 °FPassing clouds.12 mph48%30.04 "HgN/A
12:20 PM55 °FPassing clouds.12 mph51%30.04 "HgN/A
11:50 AM54 °FPassing clouds.14 mph58%30.04 "HgN/A
11:20 AM54 °FPassing clouds.14 mph54%30.07 "HgN/A
10:50 AM52 °FPassing clouds.13 mph58%30.07 "HgN/A
10:20 AM50 °FPassing clouds.14 mph62%30.07 "HgN/A
9:50 AM50 °FPassing clouds.15 mph62%30.07 "HgN/A
9:20 AM48 °FPassing clouds.10 mph71%30.07 "HgN/A
Weather by CustomWeather, © 2014

See weather overview